(281806) = 2007 BU21 = 2009 WX73

Discovered at Kitt Peak on 2009-11-18 by Spacewatch.

Orbit

Orbit type: Main Belt

Note: WebGL enabled browser required.

epoch2024-03-31.0
epoch JD2460400.5
perihelion date2023-11-18.66672
perihelion JD2460267.16672
argument of perihelion (°)51.12383
ascending node (°)89.35909
inclination (°)3.58500
eccentricity0.0675337
perihelion distance (AU)2.0827776
Tisserand w.r.t. Jupiter3.6
ΔV w.r.t. Earth (km/sec)9.0
semimajor axis (AU)2.2336223
mean anomaly (°)39.36659
mean daily motion (°/day)0.29524950
aphelion distance (AU)2.384
period (years)3.34
P-vector [x]-0.76991167
P-vector [y]0.56442214
P-vector [z]0.29776446
Q-vector [x]-0.63507999
Q-vector [y]-0.72340148
Q-vector [z]-0.27085733
absolute magnitude17.75
phase slope0.15
uncertainty0
referenceMPEC 2024-E73
observations used320
oppositions13
arc length (days)8321
first opposition used2001
last opposition used2024
residual rms (arc-secs)0.66
perturbers coarse indicatorM-v
perturbers precise indicator003Ek
first observation date used2001-05-24.0
last observation date used2024-03-05.0
computer nameMPCLINUX
JD of orbit computation2456937.370311
perihelion JD uncertainty (days)8.8865E-05
argument of perihelion uncertainty (°)6.1631E-05
ascending node uncertainty (°)5.5467E-05
inclination uncertainty (°)2.4664E-06
eccentricity uncertainty 2.3383E-08
perihelion distance uncertainty (AU)5.0602E-08
Minimum Orbit Intersection Distances (in AU)
for orbit epoch: 2460400.5, reference: E2024-GH2
Mercury1.71868
Venus1.36429
Earth1.09852
Mars0.42179
Jupiter2.61122
Saturn6.89145
Uranus16.3444
Neptune27.5272

Observations

324 total observations over interval: 2001 05 24.36367 – 2024 03 05.407323
These data are available for download (format description).

Date (UT) J2000 RA J2000 Dec Magn Location Ref
2001 05 24.36367 16 07 46.45 -18 00 55.4 20.6 V 291 – LPL/Spacewatch II MPS 306815
2001 05 24.38565 16 07 44.96 -18 00 53.7 20.9 V 291 – LPL/Spacewatch II MPS 306815
2001 05 24.40757 16 07 43.44 -18 00 51.8 21.2 V 291 – LPL/Spacewatch II MPS 306815
2002 10 30.245680 00 58 06.714 +00 09 09.41 21.08 V 645 – Apache Point-Sloan Digital Sky Survey MPS 306815
2002 10 30.249152 00 58 06.540 +00 09 08.81 21.98   645 – Apache Point-Sloan Digital Sky Survey MPS 306815
2006 11 28.45388 08 56 54.09 +18 46 05.3 20.9 V G96 – Mt. Lemmon Survey MPS 306815
2006 11 28.45959 08 56 54.31 +18 46 05.4 21.2 V G96 – Mt. Lemmon Survey MPS 306815
2006 11 28.46542 08 56 54.49 +18 46 05.3 21.4 V G96 – Mt. Lemmon Survey MPS 306815
2006 11 28.47117 08 56 54.67 +18 46 05.5 21.1 V G96 – Mt. Lemmon Survey MPS 306815
2007 01 17.23211 08 46 31.21 +21 46 44.1 20.2 V 691 – Steward Observatory, Kitt Peak-Spacewatch MPS 306815
2007 01 17.24958 08 46 30.13 +21 46 50.9 20.3 V 691 – Steward Observatory, Kitt Peak-Spacewatch MPS 306815
2007 01 17.26695 08 46 29.04 +21 46 57.8 20.3 V 691 – Steward Observatory, Kitt Peak-Spacewatch MPS 306815
2007 01 24.26719 08 39 08.79 +22 31 03.4 19.5   704 – Lincoln Laboratory ETS, New Mexico MPS 197179
2007 01 24.27955 08 39 07.96 +22 31 07.7 20.0   704 – Lincoln Laboratory ETS, New Mexico MPS 197179
2007 01 24.29181 08 39 07.11 +22 31 12.3 19.8   704 – Lincoln Laboratory ETS, New Mexico MPS 197179
2007 01 24.30408 08 39 06.28 +22 31 16.6 19.8   704 – Lincoln Laboratory ETS, New Mexico MPS 197179
2007 01 24.31635 08 39 05.45 +22 31 21.7 20.0   704 – Lincoln Laboratory ETS, New Mexico MPS 197179
2007 01 25.23479 08 38 05.68 +22 36 57.6 19.9 V 691 – Steward Observatory, Kitt Peak-Spacewatch MPS 197180
2007 01 25.25269 08 38 04.42 +22 37 04.4 20.1 V 691 – Steward Observatory, Kitt Peak-Spacewatch MPS 197180
2007 01 25.27059 08 38 03.21 +22 37 11.0 20.0 V 691 – Steward Observatory, Kitt Peak-Spacewatch MPS 197180
2009 11 10.27862 04 39 57.21 +19 07 16.3 20.3 V 691 – Steward Observatory, Kitt Peak-Spacewatch MPS 305334
2009 11 10.29582 04 39 56.33 +19 07 15.6 20.4 V 691 – Steward Observatory, Kitt Peak-Spacewatch MPS 305334
2009 11 10.31302 04 39 55.39 +19 07 15.1 20.5 V 691 – Steward Observatory, Kitt Peak-Spacewatch MPS 305334
2009 11 18.18690 04 32 19.80 +19 01 39.0 20.3 V 691 – Steward Observatory, Kitt Peak-Spacewatch MPS 305334
2009 11 18.20456 04 32 18.65 +19 01 38.3 20.3 V 691 – Steward Observatory, Kitt Peak-Spacewatch MPS 305334
2009 11 18.22220 04 32 17.50 +19 01 37.5 20.3 V 691 – Steward Observatory, Kitt Peak-Spacewatch MPS 305334
2009 11 22.22765 04 27 56.27 +18 58 21.4 20.0 V 691 – Steward Observatory, Kitt Peak-Spacewatch MPS 305334
2009 11 22.24532 04 27 55.03 +18 58 21.0 20.1 V 691 – Steward Observatory, Kitt Peak-Spacewatch MPS 305334
2009 11 22.26300 04 27 53.82 +18 58 20.3 20.4 V 691 – Steward Observatory, Kitt Peak-Spacewatch MPS 305334
2009 11 26.22351 04 23 23.91 +18 54 58.2 19.9 V 691 – Steward Observatory, Kitt Peak-Spacewatch MPS 305334
2009 11 26.24114 04 23 22.64 +18 54 57.4 20.3 V 691 – Steward Observatory, Kitt Peak-Spacewatch MPS 305334
2009 11 26.25881 04 23 21.39 +18 54 56.7 20.2 V 691 – Steward Observatory, Kitt Peak-Spacewatch MPS 305334
2009 12 16.23537 04 01 28.84 +18 41 54.6 20.2 V G96 – Mt. Lemmon Survey MPS 307446
2009 12 16.24227 04 01 28.45 +18 41 54.6 20.1 V G96 – Mt. Lemmon Survey MPS 307446
2009 12 16.24933 04 01 28.02 +18 41 54.4 20.3 V G96 – Mt. Lemmon Survey MPS 307446
2009 12 16.25625 04 01 27.62 +18 41 54.0 20.4 V G96 – Mt. Lemmon Survey MPS 307446
2011 05 12.35542 16 09 57.38 -17 37 29.8 20.2 V G96 – Mt. Lemmon Survey MPS 382280
2011 05 12.36351 16 09 56.91 -17 37 29.7 19.6 V G96 – Mt. Lemmon Survey MPS 382280
2011 05 12.37165 16 09 56.37 -17 37 28.9 19.9 V G96 – Mt. Lemmon Survey MPS 382280
2011 05 12.37978 16 09 55.87 -17 37 28.3 19.8 V G96 – Mt. Lemmon Survey MPS 382280
2011 05 21.42327 16 00 19.594 -17 24 27.02 20.1 i F51 – Pan-STARRS 1, Haleakala MPS 383337
2011 05 21.43977 16 00 18.465 -17 24 25.60 19.9 i F51 – Pan-STARRS 1, Haleakala MPS 383337
2011 05 21.45798 16 00 17.243 -17 24 24.00 20.4 r F51 – Pan-STARRS 1, Haleakala MPS 383337
2011 05 21.47320 16 00 16.176 -17 24 22.59 20.3 r F51 – Pan-STARRS 1, Haleakala MPS 383337
2011 05 22.34130 15 59 19.46 -17 23 08.9 19.2 V G96 – Mt. Lemmon Survey MPS 383337
2011 05 22.34933 15 59 18.88 -17 23 09.2 19.9 V G96 – Mt. Lemmon Survey MPS 383337
2011 05 22.35740 15 59 18.38 -17 23 08.7 19.5 V G96 – Mt. Lemmon Survey MPS 383337
2011 05 22.36550 15 59 17.80 -17 23 07.6 19.3 V G96 – Mt. Lemmon Survey MPS 383337
2011 05 28.28961 15 52 53.54 -17 15 10.2 19.8 V G96 – Mt. Lemmon Survey MPS 384018
2011 05 28.29709 15 52 53.04 -17 15 09.4 20.1 V G96 – Mt. Lemmon Survey MPS 384018
2011 05 28.30454 15 52 52.53 -17 15 08.9 20.2 V G96 – Mt. Lemmon Survey MPS 384018
2011 05 28.31201 15 52 52.03 -17 15 08.3 20.2 V G96 – Mt. Lemmon Survey MPS 384018
2012 09 17.30619 01 26 39.87 +02 42 48.6 20.9 V 691 – Steward Observatory, Kitt Peak-Spacewatch MPS 433237
2012 09 17.32394 01 26 39.15 +02 42 42.9 21.2 V 691 – Steward Observatory, Kitt Peak-Spacewatch MPS 433237
2012 09 17.34167 01 26 38.40 +02 42 37.2 21.0 V 691 – Steward Observatory, Kitt Peak-Spacewatch MPS 433237
2012 10 07.502965 01 09 09.874 +00 47 26.88 20.4 r F51 – Pan-STARRS 1, Haleakala MPS 434894
2012 10 07.514563 01 09 09.157 +00 47 22.97 20.2 r F51 – Pan-STARRS 1, Haleakala MPS 434894
2012 10 07.541913 01 09 07.460 +00 47 13.44 20.1 i F51 – Pan-STARRS 1, Haleakala MPS 434894
2012 10 11.28959 01 05 23.02 +00 26 09.3 20.2 V G96 – Mt. Lemmon Survey MPS 437739
2012 10 11.29655 01 05 22.59 +00 26 07.0 20.4 V G96 – Mt. Lemmon Survey MPS 437739
2012 10 11.30339 01 05 22.12 +00 26 04.5 20.3 V G96 – Mt. Lemmon Survey MPS 437739
2012 10 11.31021 01 05 21.73 +00 26 02.4 20.3 V G96 – Mt. Lemmon Survey MPS 437739
2012 10 15.345701 01 01 20.566 +00 04 43.55 20.5 w F51 – Pan-STARRS 1, Haleakala MPS 437739
2012 10 15.363818 01 01 19.455 +00 04 37.94 20.6 w F51 – Pan-STARRS 1, Haleakala MPS 437739
2012 10 15.378393 01 01 18.541 +00 04 33.57 20.5 w F51 – Pan-STARRS 1, Haleakala MPS 437739
2012 10 15.393032 01 01 17.642 +00 04 29.04 20.6 w F51 – Pan-STARRS 1, Haleakala MPS 437739
2012 10 18.89428 00 57 53.09 -00 12 30.6 20.0 R 461 – University of Szeged, Piszkesteto Stn. (Konkol MPS 437739
2012 10 18.90178 00 57 52.61 -00 12 32.3 20.1 R 461 – University of Szeged, Piszkesteto Stn. (Konkol MPS 437739
2012 10 18.90929 00 57 52.18 -00 12 34.6 20.0 R 461 – University of Szeged, Piszkesteto Stn. (Konkol MPS 437739
2012 11 05.284065 00 43 53.038 -01 06 34.33 20.9 w F51 – Pan-STARRS 1, Haleakala MPS 441479
2012 11 05.314280 00 43 51.860 -01 06 37.01 21.1 w F51 – Pan-STARRS 1, Haleakala MPS 441479
2012 11 05.329388 00 43 51.285 -01 06 38.32 20.8 w F51 – Pan-STARRS 1, Haleakala MPS 441479
2014 02 27.49189 12 51 14.028 +01 17 55.53 20.4 w F51 – Pan-STARRS 1, Haleakala MPS 503778
2014 02 27.50415 12 51 13.666 +01 17 59.37 20.5 w F51 – Pan-STARRS 1, Haleakala MPS 503778
2014 02 27.51646 12 51 13.306 +01 18 02.93 20.5 w F51 – Pan-STARRS 1, Haleakala MPS 503778
2014 02 27.52880 12 51 12.937 +01 18 06.80 20.6 w F51 – Pan-STARRS 1, Haleakala MPS 503778
2014 03 22.21257 12 34 25.56 +03 35 57.1 20.0 V 691 – Steward Observatory, Kitt Peak-Spacewatch MPS 508317
2014 03 22.23074 12 34 24.50 +03 36 03.8 20.2 V 691 – Steward Observatory, Kitt Peak-Spacewatch MPS 508317
2014 03 22.24891 12 34 23.41 +03 36 11.0 20.2 V 691 – Steward Observatory, Kitt Peak-Spacewatch MPS 508317
2014 03 29.38857 12 27 29.26 +04 19 25.4 19.9 V G96 – Mt. Lemmon Survey MPS 509609
2014 03 29.39864 12 27 28.64 +04 19 28.7 19.9 V G96 – Mt. Lemmon Survey MPS 509609
2014 03 29.41298 12 27 27.76 +04 19 33.6 19.9 V G96 – Mt. Lemmon Survey MPS 509609
2014 03 29.42303 12 27 27.17 +04 19 37.2 19.8 V G96 – Mt. Lemmon Survey MPS 509609
2014 03 30.22099 12 26 41.20 +04 24 07.0 20.4 r G45 – Space Surveillance Telescope, Atom Site MPS 536118
2014 03 30.23241 12 26 40.54 +04 24 11.1 19.4 r G45 – Space Surveillance Telescope, Atom Site MPS 536118
2014 03 30.24380 12 26 39.85 +04 24 14.5 20.3 r G45 – Space Surveillance Telescope, Atom Site MPS 536118
